Location: Argonnex
(45.9500°N, 6.1333°E)
Time: 10:17:52
(UTC+00:00)

CZ-6A DEB - Pass Details

Date: 23 February 2024
Orbit: 827 x 907 km, 98.8° (Epoch: 12 April)

Event Time Altitude Azimuth Distance (km) Brightness Sun altitude
Rises 17:59:06 0° 209° (SSW) 3,523 ? -8.8°
Reaches altitude 10° 18:02:17 10° 227° (SW) 2,583 ? -9.4°
Maximum altitude 18:06:12 19° 270° (W) 2,029 ? -10.0°
Drops below altitude 10° 18:10:08 10° 313° (NW) 2,575 ? -10.7°
Sets 18:13:20 0° 332° (NNW) 3,508 ? -11.3°
